OSCAR 7 (AO-7)

Last updated on Sun Jun 21 2026 00:03:19 GMT+0000 (Coordinated Universal Time)

1 07530U 74089B 26171.32384949 -.00000048 00000+0 -10319-4 0 9993 2 07530 101.9899 184.6033 0012609 124.3014 247.3322 12.53698149360912
UTC large
Height (km)
Speed (km/s)
/
Latitude / Longitude
Inclination (degrees)
Orbital Period (minutes)
Azimuth
Elevation
Range (km)
Doppler Factor

Next 0 passes for location: London (51.5072 / 0.1276)

No passes found over London.
OSCAR 7 (AO-7)